Location: Bovenkerk
(52.2915°N, 4.8336°E)
Time: 05:33:17
(UTC+00:00)

Cosmos 2237 Rocket - Pass Details

Date: 09 April 2020
Orbit: 833 x 851 km, 71.0° (Epoch: 29 May)

Event Time Altitude Azimuth Distance (km) Brightness Sun altitude
Rises 23:34:26 0° 329° (NNW) 3,409 6.2 -29.6°
Reaches altitude 10° 23:37:15 10° 341° (NNW) 2,474 5.5 -29.7°
Maximum altitude 23:42:05 28° 39° (NE) 1,552 3.9 -29.7°
Enters shadow 23:45:40 15° 89° (E) 2,112 4.3 -29.7°
